Regional Weather Roundup
Issued by NWS Portland, ME

Home | Current Version | Previous Version | Text Only | Print | Product List | Glossary On
Versions: 1 2 3 4 5 6 7 8 9 10 11 12 13 14 15 16 17 18 19 20 21 22 23 24 25 26 27 28 29 30 31 32 33 34 35 36 37 38 39 40 41 42 43 44 45 46 47 48 49 50
000
ASUS41 KGYX 261610
RWRGYX
WEATHER ROUNDUP FOR MAINE AND NEW HAMPSHIRE
NATIONAL WEATHER SERVICE GRAY ME
1200 PM EDT TUE JUL 26 2016

MEZ002-005-006-010-012-015-018-020-021-024-026-027-029-261700-
MAINE

CITY           SKY/WX    TMP DP  RH WIND       PRES   REMARKS
PORTLAND       MOSUNNY   87  65  47 NW14G21   29.75S
SANFORD          N/A     85  64  49 W10G17    29.78S
BAR HARBOR     PTSUNNY   80  71  74 VRB6      29.73S
WISCASSET      MOSUNNY   86  67  52 VRB6      29.75F
ROCKLAND       MOSUNNY   83  71  67 W9        29.74S
FRYEBURG       NOT AVBL
LEWISTONAUBURN   N/A     84  64  50 NW13      29.76S
AUGUSTA        MOSUNNY   84  64  50 W10       29.76R
WATERVILLE     MOSUNNY   84  67  56 W9        29.72F
BANGOR         PTSUNNY   87  66  49 VRB7      29.72F
GREENVILLE       N/A     77  59  53 NW8       29.76S
MILLINOCKET    MOSUNNY   82  63  52 NW9G20    29.72S
HOULTON        CLOUDY    77  68  73 W8        29.70S
PRESQUE ISLE   CLOUDY    75  66  73 W8        29.72R
FRENCHVILLE    PTSUNNY   74  64  71 W5        29.71R
CARIBOU        PTSUNNY   74  66  76 NW3       29.70S
$$

NHZ002-005-008-009-011-012-014-261700-
NEW HAMPSHIRE

CITY           SKY/WX    TMP DP  RH WIND       PRES   REMARKS
PORTSMOUTH     MOSUNNY   86  64  46 W14       29.76S
ROCHESTER      SUNNY     85  63  47 NW10      29.78S
NASHUA         MOSUNNY   87  59  38 NW10G22   29.81S
MANCHESTER     MOSUNNY   87  58  37 NW10      29.79S
CONCORD        SUNNY     89  59  36 NW15      29.81S
LACONIA        MOSUNNY   83  64  52 W9        29.82S
PLYMOUTH       FAIR      82  62  51 NW12      29.82S
BERLIN         SUNNY     80  61  52 W8        29.83S
WHITEFIELD     PTSUNNY   77  63  61 W6        29.84S
JAFFREY        MOSUNNY   81  56  42 NW7       29.87S
KEENE          PTSUNNY   84  61  45 NW13      29.86R
LEBANON        MOSUNNY   85  62  46 VRB5      29.84R
MT WASHINGTON  DRZL/FOG  52  52 100 NW32G39     N/A  VSB 0
$$

VTZ005-007-008-261700-
VERMONT

CITY           SKY/WX    TMP DP  RH WIND       PRES   REMARKS
ST JOHNSBURY     N/A     80  62  54 MISG      29.82R
MONTPELIER     FAIR      76  61  59 NW9G21    29.91R
BURLINGTON     PTSUNNY   79  61  53 NW7       29.84R
$$

MAZ007-012-024-CTZ003-RIZ002-NYZ038-NYZ072-261700-
SOUTHERN NEW ENGLAND AND NY

CITY           SKY/WX    TMP DP  RH WIND       PRES   REMARKS
BOSTON         MOSUNNY   90  59  35 NW13G21   29.78S
WORCESTER      MOSUNNY   83  57  41 NW15G23   29.87S
NANTUCKET      SUNNY     81  70  69 W14       29.82S
PROVIDENCE     MOSUNNY   89  63  41 W14       29.82F HX  90
HARTFORD       MOSUNNY   89  59  36 NW16G24   29.85S
ALBANY         MOSUNNY   81  62  52 NW14G21   29.90S
NEW YORK CITY  MOSUNNY   87  65  47 NW16      29.89F
$$

ANZ081-ANZ082-ANZ150-NHZ014-MEZ023>029-261700-
COASTAL MARINE OBSERVATIONS

STATION/POSITION TIME  TEMP    WIND        PRES    WAVE
                       AIR SEA DIR/SP/G            HT/PER
                 (UTC) (F)     (DEG/KT/KT) (MB)    (FT/S)
MOUNT DESERT ROC 1600   62     240/  7/  7 1007.3S
MATINICUS ROCK   1500   63     250/  7/  7 1007.0R
ISLE OF SHOALS   1500   79     300/ 17/ 17 1007.7F
JEFFREYS LEDGE   1508      67                N/A     2/ 3
CASHES LEDGE BUO 1550   71 70  260/  8/ 10 1007.8S   2/ 5
GEORGES BANK BUO 1550   63 62              1008.4S   2/ 6
$$

.............KEY..............
   WCI - WIND CHILL
   TC  - TEMPERATURE IN CELSIUS
   VSB - VISIBILITY IN MILES
   HX  - HEAT INDEX
   FAIR- INDICATES FEW OR NO CLOUDS BELOW 12,000 FT, WITH NO
         SIGNIFICANT WEATHER AND/OR OBSTRUCTIONS TO VISIBILITY.





USA.gov is the U.S. government's official web portal to all federal, state and local government web resources and services.